HFY24 PKMJ-PGSN

Flight info

Callsign HFY24
Flight time N/A
Altitude 40000
Route LAGSE 09N165E OLGIS 13N155E 14N150E
Aircraft A343/H-SDE2E3FGHIJ4J5M1RWXY/LB1D1

Departure

Time 2026-04-17 04:01
Airport Marshall Islands International Airport (PKMJ)

Arrival

Time N/A
Airport Saipan International Airport (PGSN)
Time Latitude Longitude Altitude Speed Heading
2026-04-17 03:29 7.06830 171.28063 9 ft 0 kts 251°
2026-04-17 03:30 7.06831 171.28067 10 ft 3 kts 251°
2026-04-17 03:30 7.06851 171.28101 11 ft 0 kts 233°
2026-04-17 03:30 7.06836 171.28100 12 ft 2 kts 167°
2026-04-17 03:30 7.06798 171.28102 8 ft 7 kts 212°
2026-04-17 03:31 7.06801 171.28070 8 ft 1 kts 301°
2026-04-17 03:31 7.06806 171.28066 8 ft 1 kts 310°
2026-04-17 03:31 7.06808 171.28064 8 ft 0 kts 311°
2026-04-17 03:50 7.06795 171.28080 10 ft 4 kts 289°
2026-04-17 03:51 7.06795 171.28104 10 ft 4 kts 237°
2026-04-17 03:51 7.06811 171.28125 9 ft 4 kts 246°
2026-04-17 03:51 7.06813 171.28131 12 ft 3 kts 257°
2026-04-17 03:54 7.06812 171.28125 6 ft 2 kts 257°
2026-04-17 03:54 7.06804 171.28102 6 ft 5 kts 244°
2026-04-17 03:55 7.06767 171.28080 9 ft 8 kts 197°
2026-04-17 03:55 7.06710 171.28045 6 ft 10 kts 235°
2026-04-17 03:55 7.06689 171.27970 5 ft 12 kts 256°
2026-04-17 03:55 7.06668 171.27882 6 ft 13 kts 256°
2026-04-17 03:56 7.06644 171.27785 7 ft 15 kts 256°
2026-04-17 03:56 7.06617 171.27672 5 ft 18 kts 256°
2026-04-17 03:56 7.06585 171.27542 4 ft 20 kts 256°
2026-04-17 03:56 7.06551 171.27399 6 ft 21 kts 256°
2026-04-17 03:57 7.06513 171.27249 6 ft 23 kts 256°
2026-04-17 03:57 7.06475 171.27090 8 ft 24 kts 256°
2026-04-17 03:57 7.06435 171.26924 6 ft 26 kts 256°
2026-04-17 03:57 7.06392 171.26748 2 ft 22 kts 257°
2026-04-17 03:58 7.06365 171.26639 4 ft 15 kts 256°
2026-04-17 03:58 7.06339 171.26530 2 ft 17 kts 256°
2026-04-17 03:58 7.06308 171.26405 1 ft 20 kts 256°
2026-04-17 03:58 7.06278 171.26266 2 ft 20 kts 267°
2026-04-17 03:59 7.06270 171.26161 4 ft 9 kts 225°
2026-04-17 03:59 7.06244 171.26173 3 ft 2 kts 119°
2026-04-17 03:59 7.06246 171.26189 3 ft 3 kts 79°
2026-04-17 03:59 7.06262 171.26224 4 ft 9 kts 67°
2026-04-17 04:00 7.06289 171.26324 2 ft 19 kts 76°
2026-04-17 04:00 7.06322 171.26460 1 ft 21 kts 76°
2026-04-17 04:00 7.06363 171.26633 3 ft 37 kts 76°
2026-04-17 04:00 7.06474 171.27086 8 ft 99 kts 76°
2026-04-17 04:01 7.06683 171.27951 19 ft 153 kts 73°
2026-04-17 04:01 7.06958 171.29031 508 ft 162 kts 73°
2026-04-17 04:01 7.07242 171.30136 1135 ft 165 kts 76°
2026-04-17 04:01 7.07654 171.31303 1478 ft 194 kts 55°
2026-04-17 04:02 7.08888 171.32051 1831 ft 229 kts 12°
2026-04-17 04:02 7.10497 171.31751 2543 ft 251 kts 333°
2026-04-17 04:02 7.11684 171.30409 3340 ft 268 kts 292°
2026-04-17 04:02 7.11911 171.28535 4220 ft 276 kts 262°
2026-04-17 04:03 7.11406 171.26674 5065 ft 280 kts 247°
2026-04-17 04:03 7.10568 171.24887 5996 ft 285 kts 241°
2026-04-17 04:03 7.09631 171.23105 6938 ft 287 kts 241°
2026-04-17 04:03 7.08861 171.21242 7902 ft 293 kts 259°
2026-04-17 04:04 7.08724 171.19185 8976 ft 297 kts 271°
2026-04-17 04:04 7.08935 171.17098 10062 ft 303 kts 279°
2026-04-17 04:04 7.09322 171.14957 10708 ft 320 kts 281°
2026-04-17 04:04 7.09792 171.12698 11147 ft 338 kts 282°
2026-04-17 04:05 7.10275 171.10355 11772 ft 348 kts 281°
2026-04-17 04:05 7.10735 171.07963 12499 ft 354 kts 280°
2026-04-17 04:05 7.11175 171.05497 13247 ft 359 kts 280°
2026-04-17 04:05 7.11595 171.03006 13971 ft 364 kts 279°
2026-04-17 04:06 7.12006 171.00473 14647 ft 368 kts 279°
2026-04-17 04:06 7.12415 170.97920 15347 ft 372 kts 279°
2026-04-17 04:06 7.12827 170.95329 15998 ft 377 kts 279°
2026-04-17 04:06 7.13246 170.92708 16700 ft 382 kts 279°
2026-04-17 04:07 7.13673 170.90040 17356 ft 387 kts 279°
2026-04-17 04:07 7.14103 170.87369 18117 ft 389 kts 279°
2026-04-17 04:07 7.14543 170.84644 18736 ft 394 kts 279°
2026-04-17 04:07 7.14986 170.81905 19341 ft 398 kts 280°
2026-04-17 04:08 7.15432 170.79143 19945 ft 402 kts 280°
2026-04-17 04:08 7.15883 170.76356 20558 ft 405 kts 280°
2026-04-17 04:08 7.16337 170.73540 21159 ft 409 kts 280°
2026-04-17 04:08 7.16795 170.70703 21758 ft 413 kts 280°
2026-04-17 04:09 7.17257 170.67829 22333 ft 417 kts 280°
2026-04-17 04:09 7.17723 170.64935 22898 ft 421 kts 280°
2026-04-17 04:09 7.18192 170.62021 23456 ft 425 kts 280°
2026-04-17 04:09 7.18660 170.59107 23905 ft 428 kts 280°
2026-04-17 04:10 7.19138 170.56129 24398 ft 431 kts 281°
2026-04-17 04:10 7.19616 170.53151 24896 ft 433 kts 280°
2026-04-17 04:10 7.20100 170.50138 25382 ft 436 kts 281°
2026-04-17 04:10 7.20584 170.47121 25855 ft 438 kts 281°
2026-04-17 04:11 7.21073 170.44073 26334 ft 441 kts 281°
2026-04-17 04:11 7.21564 170.41015 26794 ft 443 kts 281°
2026-04-17 04:11 7.22056 170.37942 27259 ft 446 kts 281°
2026-04-17 04:11 7.22553 170.34848 27717 ft 448 kts 281°
2026-04-17 04:12 7.23051 170.31738 28161 ft 451 kts 281°
2026-04-17 04:12 7.23553 170.28607 28607 ft 454 kts 281°
2026-04-17 04:12 7.24056 170.25462 29044 ft 456 kts 281°
2026-04-17 04:12 7.24558 170.22326 29470 ft 459 kts 281°
2026-04-17 04:13 7.25066 170.19147 29886 ft 461 kts 281°
2026-04-17 04:13 7.25577 170.15953 30232 ft 464 kts 281°
2026-04-17 04:13 7.26089 170.12744 30587 ft 466 kts 281°
2026-04-17 04:13 7.26605 170.09509 30906 ft 468 kts 281°
2026-04-17 04:14 7.27124 170.06256 31223 ft 471 kts 281°
2026-04-17 04:14 7.27645 170.02991 31527 ft 474 kts 281°
2026-04-17 04:14 7.28167 169.99712 31853 ft 475 kts 281°
2026-04-17 04:14 7.28690 169.96425 32276 ft 475 kts 280°
2026-04-17 04:15 7.29214 169.93132 32719 ft 474 kts 280°
2026-04-17 04:15 7.29734 169.89859 33135 ft 473 kts 280°
2026-04-17 04:15 7.30247 169.86633 33539 ft 472 kts 280°
2026-04-17 04:15 7.30766 169.83365 33933 ft 472 kts 280°
2026-04-17 04:16 7.31284 169.80107 34290 ft 471 kts 280°
2026-04-17 04:16 7.31801 169.76850 34654 ft 469 kts 280°
2026-04-17 04:16 7.32315 169.73615 35042 ft 467 kts 280°
2026-04-17 04:16 7.32828 169.70382 35403 ft 466 kts 281°
2026-04-17 04:17 7.33338 169.67165 35743 ft 465 kts 281°
2026-04-17 04:17 7.33847 169.63951 36080 ft 464 kts 281°
2026-04-17 04:17 7.34356 169.60742 36413 ft 463 kts 281°
2026-04-17 04:17 7.34861 169.57551 36736 ft 462 kts 281°
2026-04-17 04:18 7.35368 169.54351 37068 ft 461 kts 281°
2026-04-17 04:18 7.35872 169.51167 37390 ft 460 kts 281°
2026-04-17 04:18 7.36374 169.47988 37722 ft 459 kts 281°
2026-04-17 04:18 7.36876 169.44815 38046 ft 458 kts 281°
2026-04-17 04:19 7.37369 169.41696 38366 ft 457 kts 281°
2026-04-17 04:19 7.37874 169.38495 38668 ft 455 kts 281°
2026-04-17 04:19 7.38371 169.35346 38913 ft 455 kts 281°
2026-04-17 04:19 7.38858 169.32262 39129 ft 454 kts 281°
2026-04-17 04:20 7.39355 169.29107 39359 ft 454 kts 281°
2026-04-17 04:20 7.39851 169.25965 39577 ft 453 kts 281°
2026-04-17 04:20 7.40344 169.22833 39790 ft 453 kts 281°
2026-04-17 04:20 7.40840 169.19687 39897 ft 456 kts 281°
2026-04-17 04:21 7.41336 169.16536 39895 ft 455 kts 281°
2026-04-17 04:21 7.42327 169.10236 39909 ft 452 kts 281°
2026-04-17 04:22 7.43311 169.03972 39898 ft 452 kts 281°
2026-04-17 04:22 7.44286 168.97761 39897 ft 452 kts 281°
2026-04-17 04:23 7.45268 168.91504 39902 ft 452 kts 281°
2026-04-17 04:23 7.46249 168.85242 39898 ft 452 kts 281°
2026-04-17 04:24 7.47228 168.78990 39895 ft 451 kts 281°
2026-04-17 04:24 7.48202 168.72763 39896 ft 451 kts 281°
2026-04-17 04:25 7.49179 168.66515 39901 ft 451 kts 281°
2026-04-17 04:25 7.50155 168.60265 39907 ft 452 kts 281°
2026-04-17 04:26 7.51124 168.54048 39909 ft 452 kts 281°
2026-04-17 04:26 7.52100 168.47787 39905 ft 452 kts 281°
2026-04-17 04:27 7.53075 168.41521 39893 ft 452 kts 281°
2026-04-17 04:27 7.54048 168.35267 39908 ft 452 kts 281°
2026-04-17 04:28 7.55021 168.29005 39895 ft 452 kts 281°